Waarnemingen

Advertentie
Mijn weer
Putbus, Duitsland (10093): temperatuur & dauwpunt: 10.12.2017 12:00:00 - 16.12.2017 12:00:00 (CET)Putbus, Duitsland (10093): temperatuur 5cm & temperatuur -5cm: 10.12.2017 12:00:00 - 16.12.2017 12:00:00 (CET)Putbus, Duitsland (10093): temperatuur -20cm & temperatuur -100cm: 10.12.2017 12:00:00 - 16.12.2017 12:00:00 (CET)Putbus, Duitsland (10093): windsnelheid & windstoten: 10.12.2017 12:00:00 - 16.12.2017 12:00:00 (CET)Putbus, Duitsland (10093): windrichting: 10.12.2017 12:00:00 - 16.12.2017 12:00:00 (CET)Putbus, Duitsland (10093): luchtdruk: 10.12.2017 12:00:00 - 16.12.2017 12:00:00 (CET)Putbus, Duitsland (10093): zicht: 10.12.2017 12:00:00 - 16.12.2017 12:00:00 (CET)Putbus, Duitsland (10093): Zonneschijnduur: 10.12.2017 12:00:00 - 16.12.2017 12:00:00 (CET)Putbus, Duitsland (10093): neerslag: 10.12.2017 12:00:00 - 16.12.2017 12:00:00 (CET)
Datum & Tijd tt [°C] td [°C] tt 5cm [°C] tt -5cm [°C] tt -20cm [°C] tt -100cm [°C] ff [km/u] ff [kn] fx [km/u] fx [kn] dd ppp [hPa] vv [km] sd [min] rr [mm]
16.12.2017 12:00:00 3,2 0,6 2,9 2,6 2,8 6,5 13 7 26 14 WNW 1002,0 35 3 0,0
16.12.2017 11:00:00 3,3 1,5 3,2 2,4 2,7 6,5 19 11 30 16 W 1001,7 16 7 0,0
16.12.2017 10:00:00 2,3 1,0 1,7 1,9 2,8 6,5 20 11 28 15 W 1001,1 10 6 0,0
16.12.2017 09:00:00 2,2 0,9 1,8 1,6 2,8 6,5 19 10 28 15 WZW 1000,6 8 0 0,0
16.12.2017 08:00:00 1,9 0,7 1,1 1,9 2,8 6,5 13 7 21 11 WZW 1000,0 7 0 0,0
16.12.2017 07:00:00 2,0 0,7 1,8 1,9 2,8 6,5 11 6 21 11 ZW 999,9 6 0 0,0
16.12.2017 06:00:00 1,9 0,5 1,7 1,8 2,9 6,5 13 7 26 14 WZW 999,7 8 0 0,0
16.12.2017 05:00:00 1,9 0,6 1,4 1,9 2,9 6,5 15 8 27 15 WZW 999,5 7 0 0,0
16.12.2017 04:00:00 1,8 0,6 1,4 2,0 3,0 6,5 16 9 28 15 WZW 999,4 7 0 0,0
16.12.2017 03:00:00 1,9 0,8 1,6 2,1 3,0 6,5 17 9 26 14 WZW 999,3 6 0 0,1
16.12.2017 02:00:00 2,2 0,9 1,8 2,3 3,0 6,5 16 9 24 13 WZW 999,1 7 0 0,0
16.12.2017 01:00:00 2,2 1,3 1,9 2,3 3,0 6,5 13 7 22 12 WZW 998,9 5 0 0,1
16.12.2017 00:00:00 2,3 1,4 2,1 2,3 3,0 6,5 16 9 27 15 WZW 998,8 4,6 0 0,0
15.12.2017 23:00:00 2,4 1,4 2,2 2,4 3,0 6,5 18 10 31 17 WZW 998,2 6 0 0,0
15.12.2017 22:00:00 2,4 1,4 2,2 2,4 3,0 6,5 19 11 27 15 WZW 998,1 6 0 0,2
15.12.2017 21:00:00 2,4 1,6 2,2 2,4 3,0 6,5 16 8 22 12 WZW 998,0 4,2 0 0,0
15.12.2017 20:00:00 2,3 1,6 2,1 2,4 3,0 6,5 12 7 20 11 ZW 997,5 6 0 0,0
15.12.2017 19:00:00 2,2 1,3 2,0 2,4 3,0 6,5 12 7 17 9 ZW 997,1 3,0 0 0,0
15.12.2017 18:00:00 2,6 0,8 2,5 2,4 3,0 6,5 13 7 19 10 WZW 996,7 9 0 0,0
15.12.2017 17:00:00 2,6 0,8 2,3 2,5 3,0 6,5 10 6 17 9 WZW 996,3 12 0 0,0
15.12.2017 16:00:00 2,7 0,5 2,4 2,6 3,0 6,5 12 6 18 10 WZW 995,9 9 0 0,0
15.12.2017 15:00:00 2,7 0,5 2,6 2,8 2,9 6,5 11 6 20 11 WZW 995,2 12 0 0,0
15.12.2017 14:00:00 3,0 0,2 2,9 3,0 2,8 6,5 13 7 24 13 WZW 994,7 19 0 0,0
15.12.2017 13:00:00 2,9 -0,2 3,1 3,0 2,7 6,5 16 8 26 14 ZW 994,1 21 0 0,0
15.12.2017 12:00:00 2,6 0,0 2,8 2,6 2,6 6,5 12 6 26 14 ZZW 993,9 18 0 0,0
15.12.2017 11:00:00 2,6 -0,1 2,7 2,2 2,6 6,5 10 5 21 11 ZW 993,8 20 0 0,0
15.12.2017 10:00:00 2,4 0,0 2,3 1,9 2,6 6,5 10 5 21 11 ZW 993,3 18 0 0,0
15.12.2017 09:00:00 2,5 -0,2 2,3 1,8 2,6 6,5 11 6 22 12 ZW 992,7 22 0 0,0
15.12.2017 08:00:00 2,2 0,7 2,1 1,8 2,6 6,5 16 8 25 13 ZZW 992,0 14 0 0,0
15.12.2017 07:00:00 2,5 0,3 2,2 1,8 2,5 6,5 11 6 24 13 ZZW 991,4 17 0 0,0
15.12.2017 06:00:00 2,5 0,6 2,3 1,7 2,5 6,5 14 8 22 12 ZW 991,0 17 0 0,0
15.12.2017 05:00:00 2,3 0,7 2,0 1,7 2,5 6,5 14 8 26 14 ZW 990,6 17 0 0,0
15.12.2017 04:00:00 2,1 0,5 1,9 1,7 2,5 6,5 14 8 28 15 ZW 990,3 19 0 0,0
15.12.2017 03:00:00 2,0 0,2 1,7 1,7 2,6 6,5 14 8 26 14 ZW 990,3 22 0 0,0
15.12.2017 02:00:00 2,0 0,1 1,9 1,6 2,6 6,5 15 8 28 15 ZW 989,9 19 0 0,0
15.12.2017 01:00:00 1,8 0,2 1,5 1,6 2,6 6,6 15 8 26 14 ZW 989,7 17 0 0,0
15.12.2017 00:00:00 2,1 0,5 1,7 1,5 2,6 6,6 17 9 28 15 WZW 989,4 18 0 0,0
14.12.2017 23:00:00 2,0 0,7 1,6 1,4 2,7 6,6 16 9 29 16 WZW 989,2 18 0 0,0
14.12.2017 22:00:00 1,9 1,0 1,6 1,6 2,8 6,6 17 9 31 17 WZW 988,7 13 0 0,0
14.12.2017 21:00:00 2,0 1,0 1,5 2,0 2,8 6,6 22 12 37 20 WZW 988,4 13 0 0,0
14.12.2017 20:00:00 2,2 1,1 1,8 2,1 2,8 6,6 18 10 37 20 ZW 987,8 11 0 0,6
14.12.2017 19:00:00 2,2 0,9 1,8 2,2 2,8 6,6 22 12 36 20 ZW 987,8 7 0 0,5
14.12.2017 18:00:00 2,8 1,0 2,4 2,2 2,8 6,6 19 11 37 20 ZW 987,6 16 0 0,0
14.12.2017 17:00:00 3,3 0,7 3,0 2,2 2,8 6,6 18 10 48 26 ZW 987,4 36 0 0,0
14.12.2017 16:00:00 3,6 0,3 2,9 2,2 2,9 6,6 25 13 47 26 WZW 986,8 40 0 0,0
14.12.2017 15:00:00 3,9 0,8 3,3 2,7 2,8 6,6 28 15 50 27 WZW 986,2 32 0 0,0
14.12.2017 14:00:00 4,1 1,0 3,9 3,1 2,7 6,6 29 15 45 24 WZW 985,6 36 1 0,0
14.12.2017 13:00:00 4,2 1,2 4,2 3,1 2,5 6,6 32 17 54 29 WZW 985,1 38 2 0,0
14.12.2017 12:00:00 4,1 1,2 3,9 2,7 2,4 6,6 29 16 49 26 WZW 984,5 20 17 0,0
14.12.2017 11:00:00 3,9 1,3 3,9 2,5 2,2 6,6 34 18 53 28 WZW 983,8 28 6 0,0
14.12.2017 10:00:00 3,7 1,5 3,4 2,0 2,1 6,6 34 19 56 30 WZW 982,8 20 0 0,0
14.12.2017 09:00:00 3,3 1,7 2,7 1,5 2,1 6,7 31 17 58 32 ZW 981,5 49 0 0,0
14.12.2017 08:00:00 2,1 1,3 1,7 0,7 2,2 6,7 27 14 45 24 ZW 981,0 15 0 0,5
14.12.2017 07:00:00 0,4 0,0 0,1 0,8 2,2 6,7 21 11 36 20 ZW 980,8 1,7 0 0,9
14.12.2017 06:00:00 0,8 0,2 0,2 1,4 2,2 6,7 19 10 37 20 Z 981,2 2,7 0 0,4
14.12.2017 05:00:00 1,3 0,7 1,1 1,5 2,2 6,7 18 10 37 20 Z 982,2 8 0 0,7
14.12.2017 04:00:00 1,8 0,7 1,4 1,6 2,1 6,7 18 10 37 20 Z 983,4 7 0 0,2
14.12.2017 03:00:00 2,1 0,8 1,7 1,6 2,1 6,7 19 10 37 20 Z 985,2 25 0 0,0
14.12.2017 02:00:00 2,0 0,8 1,6 1,5 2,0 6,7 18 10 34 18 Z 986,5 30 0 0,0
14.12.2017 01:00:00 1,9 0,7 1,5 1,4 2,0 6,7 20 11 42 23 Z 987,8 41 0 0,0
14.12.2017 00:00:00 1,7 0,7 1,4 1,3 1,9 6,7 19 10 48 26 ZZW 989,2 30 0 0,1
13.12.2017 23:00:00 1,6 0,6 1,3 1,2 1,9 6,7 25 14 44 24 Z 990,3 13 0 0,2
13.12.2017 22:00:00 1,5 0,6 1,2 1,1 1,8 6,7 23 12 48 26 Z 991,8 19 0 0,3
13.12.2017 21:00:00 1,6 0,6 1,2 0,9 1,8 6,7 24 13 45 24 Z 993,2 9 0 0,5
13.12.2017 20:00:00 2,6 -0,7 2,1 0,7 1,8 6,7 25 13 49 26 Z 994,6 22 0 0,0
13.12.2017 19:00:00 2,8 -1,1 2,5 0,4 1,8 6,7 23 12 45 25 Z 996,2 47 0 0,0
13.12.2017 18:00:00 2,3 -1,1 1,6 0,4 1,8 6,7 22 12 43 23 Z 997,5 41 0 0,0
13.12.2017 17:00:00 2,0 -1,3 1,4 0,4 1,8 6,7 22 12 44 24 Z 999,0 44 0 0,0
13.12.2017 16:00:00 1,7 -1,3 0,8 0,4 1,8 6,8 19 10 37 20 Z 1000,6 34 0 0,0
13.12.2017 15:00:00 1,9 -1,4 1,2 0,6 1,8 6,8 22 12 42 23 Z 1001,4 31 36 0,0
13.12.2017 14:00:00 2,3 -1,5 2,0 0,6 1,8 6,8 21 12 44 24 Z 1003,1 24 60 0,0
13.12.2017 13:00:00 2,4 -1,5 1,8 0,5 1,8 6,8 19 10 46 25 Z 1004,5 17 53 0,0
13.12.2017 12:00:00 1,9 -1,6 1,7 0,4 1,9 6,8 23 13 45 24 ZZW 1006,0 20 30 0,0
13.12.2017 11:00:00 1,8 -1,2 1,6 0,4 1,9 6,8 19 10 39 21 ZZW 1007,4 14 60 0,0
13.12.2017 10:00:00 1,1 -1,2 0,2 0,4 1,9 6,8 19 10 35 19 ZZW 1008,2 15 59 0,0
13.12.2017 09:00:00 0,7 -1,4 -0,1 0,4 2,0 6,8 18 10 32 18 ZZW 1009,0 15 0 0,0
13.12.2017 08:00:00 0,9 -1,5 -0,2 0,5 2,0 6,8 17 9 33 18 ZZW 1009,2 17 0 0,0
13.12.2017 07:00:00 1,5 -1,3 1,3 0,5 2,0 6,8 21 11 39 21 ZW 1009,7 19 0 0,0
13.12.2017 06:00:00 1,5 -1,1 1,3 0,4 2,1 6,8 19 11 38 20 ZW 1009,9 18 0 0,0
13.12.2017 05:00:00 1,3 -0,9 1,0 0,4 2,1 6,8 21 12 39 21 ZW 1010,1 16 0 0,0
13.12.2017 04:00:00 1,0 -0,8 0,7 0,5 2,2 6,8 22 12 43 23 WZW 1010,1 14 0 0,0
13.12.2017 03:00:00 0,7 -0,5 0,3 0,5 2,2 6,8 21 11 37 20 ZW 1009,8 12 0 0,0
13.12.2017 02:00:00 0,8 -0,4 0,0 0,5 2,3 6,8 22 12 36 19 ZW 1009,1 11 0 0,0
13.12.2017 01:00:00 0,6 -0,3 0,3 0,5 2,4 6,8 16 9 30 16 ZW 1008,9 8 0 0,0
13.12.2017 00:00:00 0,5 -0,6 0,3 0,5 2,5 6,8 19 11 33 18 WZW 1008,9 10 0 0,0
12.12.2017 23:00:00 0,4 -1,3 -0,8 0,4 2,7 6,8 15 8 25 14 ZW 1008,2 30 0 0,0
12.12.2017 22:00:00 1,2 -1,7 -0,1 0,7 2,8 6,8 18 10 35 19 W 1007,6 47 0 0,0
12.12.2017 21:00:00 1,8 -1,0 0,8 1,4 2,9 6,8 23 13 35 19 W 1006,5 46 0 0,0
12.12.2017 20:00:00 2,0 -0,8 1,6 1,6 3,0 6,8 19 11 34 18 W 1005,2 41 0 0,0
12.12.2017 19:00:00 2,3 -1,3 1,7 1,8 3,1 6,8 21 12 35 19 WNW 1003,6 48 0 0,0
12.12.2017 18:00:00 2,4 -0,4 1,8 1,9 3,2 6,8 24 13 42 23 WNW 1001,9 41 0 0,1
12.12.2017 17:00:00 1,6 0,6 1,2 2,1 3,3 6,9 23 13 41 22 WNW 1000,1 12 0 1,5
12.12.2017 16:00:00 2,1 1,1 1,7 2,5 3,3 6,9 21 11 34 19 WNW 998,2 7 0 1,4
12.12.2017 15:00:00 2,2 1,2 1,9 2,8 3,3 6,9 21 11 40 21 W 996,2 7 0 0,6
12.12.2017 14:00:00 2,9 1,7 2,5 3,1 3,3 6,9 22 12 41 22 W 994,4 26 0 0,2
12.12.2017 13:00:00 2,7 1,8 2,7 3,2 3,3 6,9 25 13 41 22 W 993,0 9 0 0,0
12.12.2017 12:00:00 2,5 1,8 2,5 3,2 3,3 6,9 26 14 44 24 W 991,6 8 0 0,0
12.12.2017 11:00:00 2,8 2,0 2,7 3,4 3,2 6,9 26 14 39 21 WZW 990,3 16 0 0,0
12.12.2017 10:00:00 3,5 2,6 3,4 3,6 3,1 6,9 23 12 36 20 WZW 988,8 14 0 0,0
12.12.2017 09:00:00 4,3 3,7 4,1 3,7 2,9 6,9 23 13 35 19 W 987,3 8 0 0,8
12.12.2017 08:00:00 5,6 5,0 5,2 3,5 2,7 6,9 15 8 34 19 ZW 986,1 6 0 0,3
12.12.2017 07:00:00 5,5 4,9 5,1 3,1 2,6 6,9 14 8 27 14 ZZW 985,4 13 0 0,6
12.12.2017 06:00:00 5,0 4,5 4,5 2,8 2,4 7,0 10 6 23 13 Z 985,1 12 0 0,0
12.12.2017 05:00:00 4,8 4,2 4,3 2,4 2,3 7,0 12 6 20 11 ZZW 984,5 12 0 0,1
12.12.2017 04:00:00 3,7 3,4 3,5 2,1 2,2 7,0 10 5 18 10 Z 984,4 2,6 0 0,0
12.12.2017 03:00:00 3,3 3,2 3,0 1,9 2,1 7,0 11 6 17 9 ZZO 984,5 1,9 0 0,2
12.12.2017 02:00:00 3,1 2,9 2,9 1,8 2,0 7,0 9 5 20 11 Z 984,4 2,3 0 0,3
12.12.2017 01:00:00 3,2 2,8 3,0 1,4 1,9 7,0 10 5 20 11 Z 984,2 4,0 0 0,4
12.12.2017 00:00:00 3,1 2,7 2,8 0,9 1,8 7,0 10 5 22 12 Z 984,7 3,0 0 0,4
11.12.2017 23:00:00 3,4 3,1 3,0 0,5 1,7 7,0 8 4 21 11 ZZO 984,7 3,6 0 0,1
11.12.2017 22:00:00 2,7 2,4 2,3 0,4 1,7 7,0 8 4 22 12 ZZO 984,8 6 0 0,3
11.12.2017 21:00:00 1,0 0,7 0,8 0,4 1,8 7,0 8 5 13 7 O 984,8 2,8 0 0,6
11.12.2017 20:00:00 0,7 0,3 0,0 0,4 1,8 7,1 6 4 21 11 ZO 986,3 2,5 0 1,1
11.12.2017 19:00:00 0,6 0,1 0,1 0,4 1,8 7,1 12 7 23 12 ZZO 986,9 2,0 0 0,7
11.12.2017 18:00:00 1,2 0,5 1,0 0,4 1,7 7,1 8 5 17 9 ZO 986,5 8 0 0,0
11.12.2017 17:00:00 1,2 0,6 1,1 0,4 1,7 7,1 9 5 15 8 ZO 986,6 5 0 0,0
11.12.2017 16:00:00 0,9 0,2 0,7 0,4 1,7 7,1 2 1 11 6 ZZO 987,3 7 0 0,0
11.12.2017 15:00:00 0,9 -0,1 0,7 0,4 1,7 7,1 6 3 13 7 Z 987,3 12 0 0,0
11.12.2017 14:00:00 0,8 -0,1 0,7 0,3 1,7 7,1 7 4 15 8 ZZW 987,4 10 0 0,0
11.12.2017 13:00:00 0,8 -0,1 0,7 0,3 1,8 7,1 8 5 16 9 ZZW 987,2 8 0 0,0
11.12.2017 12:00:00 0,5 -0,3 0,6 0,3 1,8 7,1 11 6 22 12 ZW 986,9 8 0 0,0
11.12.2017 11:00:00 0,6 0,2 0,5 0,3 1,8 7,1 13 7 21 12 ZW 986,4 3,6 0 0,0
11.12.2017 10:00:00 0,8 0,7 0,6 0,3 1,8 7,1 5 3 11 6 ZZO 984,4 5 0 0,0
11.12.2017 09:00:00 0,5 0,2 0,2 0,3 1,8 7,2 8 4 11 6 NNO 983,8 4,9 0 0,0
11.12.2017 08:00:00 0,3 -0,1 0,1 0,3 1,8 7,2 6 3 10 6 N 983,9 7 0 0,0
11.12.2017 07:00:00 0,3 0,2 0,1 0,3 1,8 7,2 5 3 14 7 O 982,6 6 0 0,1
11.12.2017 06:00:00 0,1 -0,1 0,0 0,3 1,9 7,2 9 5 22 12 O 981,5 3,0 0 0,6
11.12.2017 05:00:00 0,1 -0,3 0,0 0,3 1,9 7,2 10 6 29 16 O 981,3 1,0 0 0,4
11.12.2017 04:00:00 0,0 -0,8 0,0 0,3 1,9 7,2 14 8 34 18 OZO 981,1 3,6 0 0,0
11.12.2017 03:00:00 0,1 -2,0 0,1 0,3 1,9 7,2 17 9 31 17 OZO 981,0 17 0 0,0
11.12.2017 02:00:00 0,2 -2,5 0,1 0,4 2,0 7,2 18 10 37 20 OZO 981,3 22 0 0,0
11.12.2017 01:00:00 -0,1 -3,1 -0,2 0,4 2,0 7,2 16 9 39 21 ZO 982,1 23 0 0,0
11.12.2017 00:00:00 -0,6 -3,3 -0,7 0,4 2,0 7,2 18 10 36 20 ZO 983,0 17 0 0,0
10.12.2017 23:00:00 -0,9 -3,5 -1,5 0,4 2,1 7,3 18 10 41 22 ZZO 983,6 46 0 0,0
10.12.2017 22:00:00 -0,7 -4,1 -1,0 0,4 2,1 7,3 14 8 35 19 ZZO 984,4 45 0 0,0
10.12.2017 21:00:00 -0,2 -4,8 -0,4 0,4 2,2 7,3 15 8 37 20 ZZO 985,2 46 0 0,0
10.12.2017 20:00:00 0,0 -4,3 -0,3 0,5 2,2 7,3 15 8 35 19 ZZO 985,7 54 0 0,0
10.12.2017 19:00:00 0,0 -4,1 -0,4 0,5 2,3 7,3 17 9 38 20 ZZO 986,5 59 0 0,0
10.12.2017 18:00:00 0,1 -3,9 -0,2 0,5 2,3 7,3 19 10 36 19 ZZO 987,5 51 0 0,0
10.12.2017 17:00:00 0,3 -3,4 0,1 0,7 2,4 7,3 16 9 38 21 ZZO 988,2 52 0 0,0
10.12.2017 16:00:00 0,3 -2,8 0,2 0,8 2,5 7,3 13 7 31 17 ZZO 989,2 42 0 0,0
10.12.2017 15:00:00 0,4 -2,9 -0,1 1,3 2,4 7,3 17 9 34 19 Z 990,0 47 0 0,0
10.12.2017 14:00:00 1,0 -2,2 1,0 1,5 2,4 7,3 15 8 36 19 Z 991,2 34 0 0,0
10.12.2017 13:00:00 1,0 -2,4 1,2 1,7 2,3 7,3 18 10 35 19 Z 992,4 38 0 0,0
10.12.2017 12:00:00 1,0 -2,2 1,2 1,3 2,3 7,4 19 11 33 18 Z 993,8 36 0 0,0

tt = temperatuur
td = dauwpunt
tt 5cm = temperatuur 5cm
tt -5cm = temperatuur -5cm
tt -20cm = temperatuur -20cm
tt -100cm = temperatuur -100cm
ff = windsnelheid
fx = windstoten
dd = windrichting
ppp = luchtdruk
vv = zicht
sd = Zonneschijnduur
rr = neerslag

Weerstations in de omgeving